Theta_e
361 365 363 363 362 364 364 365 361 359 357 357 356 355 356 356 352 352 354 353 353 353 357 358 360 360 359 358 355 358 360 360 360 361 363 363 362 363 362 362 362 362 363 361 359 360 361 361 362 363 364 362 361 361 359 357 360 358 359 358 356 360 360 359 356 355 360 360 356 354 356 359 356 362 362 361 363 365 363 367 369 363 363 362 369
358 365 364 363 362 363 363 364 364 360 357 356 356 354 355 356 356 353 349 353 353 351 357 357 357 357 357 358 359 356 359 362 358 359 360 362 362 358 358 362 363 362 363 362 361 359 360 361 361 360 363 360 358 355 355 353 353 352 352 353 353 356 361 357 357 357 356 362 358 361 358 359 355 364 364 361 362 368 365 367 365 363 362 363 363
359 363 363 363 363 362 362 362 364 361 356 354 353 352 353 356 358 354 350 349 354 354 352 355 357 357 358 358 360 358 362 360 361 360 360 361 362 358 354 358 359 359 359 360 359 360 359 360 358 360 357 357 358 357 354 352 352 352 351 352 353 353 357 361 359 356 356 358 362 358 358 359 360 362 365 363 367 365 366 366 361 359 358 359 359
354 359 363 362 362 362 363 361 360 359 355 353 351 351 349 352 356 354 351 349 347 354 354 353 355 359 357 358 359 361 360 360 360 360 359 361 362 363 360 358 356 358 357 357 356 356 356 357 356 356 358 357 358 357 357 356 355 356 354 356 357 355 357 359 362 361 359 356 360 358 359 358 360 363 363 363 360 362 363 365 363 362 361 359 358
354 357 360 362 362 361 360 359 358 358 355 353 352 350 348 347 351 352 352 349 346 349 354 355 357 358 355 357 358 360 360 362 362 358 358 359 361 361 362 360 358 358 358 357 356 357 355 354 353 355 356 355 355 355 355 356 355 354 354 356 356 357 358 360 361 361 360 358 359 364 364 363 364 364 365 363 363 363 364 364 359 360 362 361 361
356 357 359 360 360 361 360 359 357 357 357 354 352 351 349 348 347 349 351 350 348 345 350 353 353 356 358 359 359 360 362 362 363 363 357 355 358 359 359 359 358 358 358 355 355 355 353 354 353 354 353 353 353 354 358 356 356 355 356 355 355 357 360 361 363 363 360 360 361 359 364 358 360 364 366 364 360 360 362 361 361 360 363 362 365
353 354 359 354 359 358 359 359 359 357 357 357 354 352 351 349 347 347 350 350 349 346 345 351 354 354 357 359 357 359 360 360 363 363 361 359 356 358 355 356 355 355 356 355 353 353 352 352 353 353 353 353 351 351 353 355 355 357 359 360 360 359 356 357 360 360 360 360 360 361 359 359 358 357 362 367 366 365 363 362 361 364 366 363 363
352 353 354 353 356 357 358 360 360 362 361 363 359 354 352 351 351 350 351 351 348 347 345 345 350 354 355 357 359 359 359 359 361 362 362 359 355 354 356 355 352 352 352 353 352 350 350 350 349 350 352 355 353 354 354 352 356 357 359 360 361 360 358 356 355 355 358 358 357 356 356 359 360 359 358 360 359 362 365 364 360 359 360 368 364
353 353 353 353 358 360 362 360 361 364 362 363 360 358 355 355 355 354 353 351 350 349 347 345 346 350 354 357 358 356 352 355 357 359 359 360 358 352 352 353 353 351 350 349 351 351 350 347 346 346 354 367 364 364 361 365 353 355 360 362 364 361 362 360 358 358 356 354 356 358 353 355 356 358 354 353 354 355 361 360 360 358 359 359 366
356 353 353 355 357 359 363 364 365 364 363 362 364 362 359 358 355 354 354 352 355 356 356 352 348 347 350 354 356 354 352 349 355 348 353 358 358 351 349 352 354 352 351 349 346 346 346 347 347 361 365 369 369 363 357 357 362 356 358 361 364 364 363 362 362 360 358 355 353 353 350 348 348 353 351 352 355 357 351 358 358 358 362 359 362
354 354 355 356 358 360 358 361 363 363 365 365 365 366 364 360 359 363 359 357 360 364 357 354 351 348 348 349 352 352 351 348 343 335 337 344 356 356 352 352 355 354 351 355 352 348 345 344 345 351 363 367 369 358 354 351 352 351 351 354 361 367 366 363 362 362 359 355 355 355 351 350 349 350 348 345 345 346 345 355 353 356 357 355 353
354 356 356 359 359 357 359 362 363 363 364 367 368 367 366 364 362 362 359 358 363 359 357 357 358 354 351 350 349 350 351 347 332 332 335 335 345 356 351 350 347 348 350 351 351 351 349 345 343 340 343 349 352 365 359 351 347 348 347 348 348 347 349 361 366 363 362 358 356 356 353 352 353 353 348 347 350 351 354 355 360 357 356 355 354
351 353 356 358 359 358 356 357 361 361 363 363 367 367 367 365 361 359 358 360 360 362 363 359 359 359 357 354 350 350 350 341 331 329 332 332 334 348 349 347 344 344 345 349 350 352 352 350 347 346 342 360 362 351 367 366 348 343 346 347 347 345 340 338 342 360 365 363 363 361 360 359 357 358 356 355 359 355 358 354 358 356 358 356 356
348 346 349 351 352 352 351 348 347 349 355 358 361 364 365 365 361 359 357 359 360 359 360 361 360 362 361 360 358 355 353 345 329 326 328 329 331 339 354 349 346 343 346 344 344 348 357 357 354 352 352 352 356 358 360 363 369 364 360 359 360 357 347 339 338 338 347 357 359 357 362 366 363 366 368 367 362 359 354 351 356 354 356 357 362
346 346 347 348 348 347 350 350 351 351 351 353 356 354 356 359 361 360 357 357 358 360 359 360 361 362 360 360 360 357 355 340 328 323 323 325 328 336 355 352 352 352 350 349 352 348 354 354 357 356 360 360 357 358 358 361 365 367 370 365 362 361 363 360 357 355 355 354 356 359 360 362 365 366 369 370 367 366 362 362 362 364 363 366 364
343 343 343 343 345 346 344 343 347 352 355 356 354 353 353 353 355 360 359 357 359 359 361 360 360 360 360 361 358 358 358 335 328 322 320 322 326 346 355 356 354 354 355 355 355 357 354 353 357 358 361 364 362 351 357 364 363 364 365 368 369 368 364 361 349 349 358 357 358 357 356 357 349 362 369 368 367 372 369 363 364 364 362 360 356
338 340 341 342 344 344 343 343 345 348 352 355 353 352 353 354 356 358 358 355 356 357 359 358 361 360 360 360 359 360 359 344 325 320 318 319 327 351 355 355 355 355 355 357 358 357 356 357 362 355 356 363 356 339 338 355 363 361 364 364 363 363 363 366 346 337 338 336 336 338 337 336 335 334 331 330 359 365 371 364 358 355 353 348 348
336 337 338 340 344 345 344 342 343 345 347 350 356 359 360 358 356 357 353 355 358 358 358 359 360 360 359 359 359 359 359 350 323 318 316 317 333 353 356 354 355 356 356 358 358 359 360 359 364 359 360 363 346 335 333 351 364 361 361 360 360 360 361 362 363 361 334 333 334 334 334 335 336 334 334 333 332 348 365 358 355 353 349 347 345
334 334 335 336 338 341 345 345 343 343 345 348 351 353 355 356 356 358 360 359 358 361 361 360 358 359 358 358 361 358 359 350 324 318 316 315 332 356 356 356 355 355 355 356 359 359 360 361 360 357 358 357 339 333 328 349 363 362 361 359 356 356 355 362 363 361 364 362 362 359 356 347 355 360 361 342 338 349 361 362 359 353 349 346 344
334 336 337 336 337 339 341 345 344 344 345 347 349 352 354 357 358 359 359 359 357 358 360 358 358 359 358 358 358 358 358 359 355 318 316 313 319 355 359 356 355 355 357 357 358 360 361 362 361 335 331 332 332 328 323 327 360 363 362 359 358 356 358 359 367 363 365 361 366 367 365 366 366 365 365 364 362 359 360 361 360 357 353 349 348
335 337 337 336 336 337 339 342 342 344 345 347 349 351 354 354 354 354 358 361 356 358 359 358 356 357 357 359 358 357 355 357 365 316 314 312 315 328 357 357 358 358 358 359 358 359 360 361 363 344 326 325 324 324 319 319 334 365 364 362 361 362 360 361 366 368 366 365 365 364 362 366 367 368 366 366 363 363 361 358 359 358 356 354 350
335 337 336 336 336 336 337 341 343 342 345 347 348 348 352 354 354 355 354 357 358 359 360 359 358 356 357 361 361 362 365 362 364 325 314 312 312 315 349 357 358 359 359 360 361 361 362 362 365 353 325 323 321 321 318 319 320 355 365 338 337 337 365 367 368 367 365 360 358 358 358 358 358 358 359 360 360 364 364 362 359 357 361 360 358
334 335 337 336 336 336 338 338 339 341 343 345 346 346 348 351 353 354 356 356 356 357 359 359 359 358 361 361 362 364 365 366 347 361 314 310 310 311 322 342 336 364 358 359 361 362 364 366 366 357 324 317 317 317 318 318 322 341 331 329 328 329 344 360 361 360 361 361 361 360 359 359 357 356 356 357 357 361 356 361 364 362 363 363 364
333 332 335 335 334 334 335 336 337 339 342 344 345 346 348 349 350 352 353 353 353 355 355 353 357 358 357 358 360 362 364 363 353 339 345 311 311 309 311 317 328 353 360 358 360 361 363 366 363 339 323 311 313 316 318 320 336 325 322 324 327 333 352 357 356 358 357 356 356 357 359 359 358 358 357 360 359 364 361 361 369 369 367 365 366
329 331 333 333 333 333 333 335 335 338 341 341 342 343 346 347 347 351 353 354 355 354 355 353 351 352 353 354 358 358 360 362 364 352 332 325 312 310 310 313 316 319 351 359 362 361 346 333 324 326 325 311 312 314 317 318 317 321 321 322 331 348 352 354 355 356 355 355 355 357 357 358 360 362 365 369 371 368 371 366 367 371 371 371 372
329 330 330 330 329 330 331 331 334 337 337 338 339 341 342 343 345 348 350 350 353 354 354 353 351 352 352 354 356 356 357 361 360 363 353 338 324 313 313 313 317 318 328 349 340 336 331 326 323 325 321 320 333 340 346 348 324 319 321 327 344 348 352 353 355 354 354 354 355 355 356 358 359 363 371 371 369 366 364 366 367 364 365 366 366
327 327 328 328 329 328 329 329 331 332 333 335 339 341 342 343 343 346 349 349 350 351 353 352 352 354 354 354 355 355 358 358 359 359 363 364 360 345 326 325 317 317 326 337 335 346 348 345 349 339 337 332 334 340 342 345 347 341 337 339 344 349 353 353 354 355 355 355 354 356 357 359 363 366 367 368 367 368 367 366 363 361 365 366 367
324 324 326 328 327 325 325 330 330 330 332 334 334 335 337 338 339 341 343 346 347 348 349 349 349 348 351 353 354 356 356 357 360 358 364 361 361 364 359 351 345 341 341 345 348 351 354 342 342 355 359 360 356 355 356 359 357 355 356 353 350 350 351 351 352 357 358 359 358 359 359 362 361 359 359 359 360 363 369 365 363 363 362 364 361
324 324 324 326 326 327 325 325 325 328 331 333 333 335 336 338 340 341 342 343 343 341 338 338 340 342 347 349 352 354 356 357 363 328 342 323 340 357 360 360 354 355 344 332 354 357 357 356 356 356 356 354 354 356 356 356 356 358 358 359 359 356 354 353 352 353 355 357 357 358 358 360 358 359 357 357 361 360 369 369 371 368 368 365 358
324 323 325 325 325 324 324 324 327 329 328 328 331 333 335 324 330 336 336 334 325 318 316 334 339 341 340 342 345 345 348 353 329 316 313 315 314 313 319 322 313 331 331 322 341 355 358 358 357 356 355 356 355 355 356 357 358 358 359 346 356 358 356 354 354 354 356 355 357 356 358 357 358 358 357 356 360 360 363 354 368 369 365 361 359
323 323 325 326 326 326 325 326 328 329 330 330 331 332 333 336 313 310 318 324 320 313 309 308 309 312 328 336 336 326 323 319 315 313 311 310 313 313 312 314 320 320 316 345 348 349 355 355 355 355 355 356 355 356 358 357 357 357 357 356 358 356 352 355 355 354 353 354 355 355 356 357 356 357 356 357 358 359 359 363 364 368 363 359 358
322 322 323 325 326 327 326 328 328 329 329 330 332 331 331 331 334 320 309 310 310 305 304 304 304 306 308 314 326 336 326 317 311 310 308 307 310 310 307 307 311 311 313 315 346 352 352 354 355 355 355 354 355 356 356 357 357 358 357 355 353 354 356 355 357 357 355 355 355 353 356 355 356 357 356 356 354 357 357 356 357 361 362 361 358
323 323 325 325 326 326 325 326 327 327 329 331 331 332 330 329 329 330 338 312 307 307 306 304 304 304 304 303 302 307 311 313 311 309 307 305 304 304 304 306 311 309 310 331 344 348 352 354 355 357 355 354 356 357 359 357 357 358 360 357 355 354 356 363 356 360 355 356 357 356 356 356 356 356 353 354 355 355 357 356 356 356 360 359 358
323 323 324 325 325 324 324 325 325 325 327 328 330 330 330 331 330 330 330 332 334 326 308 304 303 304 302 301 305 305 304 303 303 303 302 303 301 303 303 316 306 304 313 342 344 346 351 355 355 356 356 357 356 357 357 358 359 360 360 360 360 361 363 369 368 363 357 357 356 355 356 358 357 358 358 357 356 356 357 355 357 355 356 357 357
321 323 325 325 324 324 324 324 324 325 326 327 328 328 329 331 331 330 329 329 328 328 332 339 319 304 325 321 311 304 304 305 304 302 302 302 302 301 302 333 336 336 328 333 344 350 353 354 354 355 357 357 357 356 357 359 359 359 359 360 361 361 362 361 359 362 361 360 359 357 356 356 359 355 356 356 356 355 356 356 356 356 355 355 355
320 321 322 323 323 324 324 324 324 325 325 326 328 328 328 328 328 328 327 327 328 329 332 335 338 327 317 308 306 308 309 308 308 305 301 299 300 302 332 340 345 348 347 345 344 348 352 354 355 357 358 358 359 358 359 359 360 360 361 362 361 360 360 359 357 361 364 362 360 360 354 358 356 354 357 355 356 354 355 355 355 354 354 355 355
319 319 320 321 322 323 323 324 324 325 323 323 324 325 326 326 327 328 328 328 329 331 332 334 337 338 334 342 332 313 307 307 305 302 299 299 296 313 338 347 351 352 351 353 351 350 352 354 355 357 358 359 359 360 360 360 362 364 355 365 365 366 362 362 362 359 366 356 352 350 348 347 347 350 353 353 352 355 356 356 355 351 353 349 344
319 318 319 320 321 322 322 323 322 321 322 323 323 324 325 325 327 328 328 330 329 329 330 332 330 334 337 341 349 351 335 301 300 305 301 299 305 320 332 343 349 353 354 356 356 355 354 356 357 358 359 360 360 361 360 361 361 362 364 366 367 366 352 360 355 355 347 349 346 346 345 347 348 349 348 354 355 354 353 353 354 354 352 345 347
318 317 317 317 319 320 322 323 323 322 322 322 323 324 324 326 326 327 328 329 330 329 331 333 334 334 336 340 338 334 334 342 345 347 340 332 328 331 338 345 350 352 356 357 357 357 357 357 358 359 360 361 360 363 363 362 363 361 365 367 369 367 365 362 365 351 348 348 349 350 350 350 351 351 353 355 354 353 353 354 354 353 353 352 352
318 318 318 317 318 318 319 321 320 320 320 321 322 323 324 325 326 327 327 328 328 329 330 330 331 333 335 329 323 323 328 331 336 341 346 350 350 347 347 348 351 353 355 357 358 358 359 359 361 364 364 362 366 363 363 363 362 362 364 364 365 364 364 363 372 357 355 355 355 354 352 352 353 354 355 356 356 356 355 354 353 354 353 352 352
317 318 319 318 318 319 320 320 320 320 321 321 322 323 323 324 325 325 326 325 326 327 328 329 330 333 326 311 301 303 320 325 330 335 340 345 344 345 343 339 333 335 337 335 335 339 342 343 344 345 347 349 350 350 352 356 359 360 361 362 362 360 363 370 362 362 360 360 357 357 357 356 355 356 356 357 345 350 355 355 354 353 351 352 353
318 318 318 318 319 319 319 319 319 320 321 322 322 322 324 324 324 325 324 325 324 324 325 327 328 330 318 301 302 297 315 326 330 331 334 333 331 332 328 325 321 321 322 322 322 323 325 328 332 334 335 335 335 334 335 339 340 342 345 351 358 360 361 354 359 360 361 359 357 358 359 357 356 356 357 343 359 358 357 356 356 355 356 356 355
319 318 318 319 319 318 319 319 320 319 319 320 321 323 323 323 323 323 322 323 323 323 323 323 324 324 323 311 310 306 319 324 324 324 322 318 318 319 320 318 316 315 314 315 315 316 317 318 320 323 324 325 325 327 328 329 329 332 334 337 340 341 344 349 356 359 360 360 359 356 359 358 356 357 358 356 358 358 357 356 355 355 355 357 355
317 317 317 318 318 319 320 320 320 320 320 320 321 322 322 323 323 323 322 322 321 321 321 321 320 320 320 317 315 316 318 317 317 316 314 313 313 312 311 311 311 311 310 310 310 311 313 314 315 315 316 316 316 317 318 319 320 324 326 328 329 329 333 337 342 345 346 350 354 356 358 358 356 357 354 352 357 356 355 355 354 353 353 354 354
316 316 317 318 318 319 319 320 319 319 319 320 320 321 321 321 320 320 320 320 320 319 319 318 318 317 315 314 314 314 313 312 309 309 310 309 308 308 307 306 306 307 308 307 308 308 309 309 311 312 313 312 312 312 313 314 315 316 316 317 319 321 326 330 331 332 335 338 342 347 352 355 357 356 355 356 354 355 352 354 353 344 349 349 346
313 314 315 316 317 317 317 318 318 318 319 319 318 319 319 320 320 320 319 318 317 316 315 315 315 314 312 311 310 310 308 308 307 306 306 306 306 305 304 304 304 305 306 306 306 306 307 307 308 309 309 310 311 311 310 310 310 312 313 314 314 315 317 318 321 323 326 330 334 339 344 347 351 352 348 351 352 355 356 355 352 347 347 343 340
312 312 312 313 313 314 315 315 316 317 318 318 318 318 317 317 318 317 317 315 314 312 311 311 311 310 309 308 307 306 305 304 305 304 303 302 302 302 303 303 304 304 304 305 306 306 306 306 306 307 307 308 310 311 310 310 311 311 312 312 312 312 314 316 319 322 326 329 331 334 339 343 346 348 348 345 344 344 343 342 339 339 339 337 336
309 310 310 312 312 313 313 313 314 315 316 316 316 316 316 316 315 315 314 313 311 310 309 309 308 307 306 305 305 304 304 303 303 303 303 302 301 301 302 303 304 304 305 304 305 305 305 306 307 307 307 308 309 310 311 311 312 312 313 313 313 311 308 303 314 322 329 333 334 336 338 340 342 343 340 342 340 337 337 338 336 333 332 332 332
307 308 309 310 311 312 312 312 313 313 313 314 314 314 313 312 312 313 312 310 309 308 307 306 304 304 303 303 302 303 303 302 301 301 301 302 303 304 304 304 304 305 305 304 305 306 307 307 308 308 308 308 309 310 310 310 311 312 312 312 306 298 295 297 309 324 315 328 333 335 337 335 333 332 331 331 332 332 333 331 330 328 328 329 329
306 308 308 309 309 310 311 311 312 311 311 311 311 311 311 310 310 310 309 308 307 306 305 304 302 302 302 301 301 301 302 301 300 301 302 302 302 303 302 302 302 302 302 303 304 304 305 305 306 306 307 307 307 307 307 307 306 304 304 301 294 292 294 298 300 304 322 327 325 326 328 329 329 328 327 328 328 327 325 325 325 327 328 328 327
306 306 308 308 308 309 309 309 309 309 308 308 308 308 308 308 307 307 306 306 305 304 303 303 302 302 301 301 301 301 300 300 299 299 299 300 300 301 302 302 303 303 303 304 305 306 306 307 307 307 307 307 307 307 307 305 303 301 296 294 293 293 294 297 308 298 304 312 321 319 318 318 318 317 317 318 318 317 315 316 318 318 318 317 316
Wind_Speed
15 14 14 14 15 15 15 14 15 13 14 13 12 11 11 11 11 10 9 9 9 10 10 9 9 9 9 8 9 8 7 8 7 7 7 7 6 6 6 5 6 6 6 6 6 5 5 5 5 5 5 5 4 4 4 5 4 4 4 4 5 4 5 5 6 6 5 5 6 6 6 6 5 3 5 5 5 2 4 5 5 6 6 5 6
16 14 13 14 15 15 15 14 14 13 14 14 13 13 11 11 11 10 11 10 10 11 11 10 10 10 10 9 9 9 8 7 8 7 7 7 8 7 7 7 6 6 6 6 6 6 5 6 6 7 6 6 6 6 6 6 5 6 5 5 5 5 5 5 5 6 7 5 6 5 6 6 7 4 4 5 6 5 6 5 6 6 5 4 2
13 14 14 13 15 15 14 14 14 15 15 14 15 14 13 12 11 12 12 11 11 10 11 11 10 10 10 9 9 9 7 9 9 8 7 8 8 8 7 8 8 8 7 8 7 7 7 6 7 7 6 7 7 7 7 7 6 6 6 5 4 5 4 5 5 7 7 7 6 7 6 4 5 6 6 6 5 5 6 6 6 5 6 5 6
16 14 13 13 15 14 13 13 15 15 15 13 15 15 14 13 12 12 13 11 11 11 11 11 11 9 10 10 10 9 9 9 9 9 9 9 9 8 8 7 7 8 8 8 8 8 8 7 8 7 7 7 6 6 6 6 6 5 6 6 6 6 6 5 6 6 6 8 6 6 6 6 6 6 6 6 7 6 6 5 6 7 6 7 5
11 13 12 14 13 13 15 15 14 15 15 14 15 15 15 14 13 13 13 13 12 12 11 11 10 10 11 11 11 10 10 10 10 10 10 9 10 9 9 8 8 8 8 7 7 7 7 8 7 7 7 7 7 7 7 8 7 7 7 6 6 6 6 6 6 6 7 8 7 6 6 7 6 7 7 7 6 6 5 5 6 6 6 7 7
6 5 13 13 11 13 14 14 15 15 15 15 15 15 14 13 13 13 13 13 13 12 12 12 11 11 11 11 11 11 10 10 10 10 11 11 10 10 9 9 9 9 9 9 9 8 8 8 8 7 8 8 8 8 7 8 8 8 8 7 6 6 6 7 7 7 7 7 7 7 6 7 7 6 5 6 7 6 5 6 6 5 5 6 5
9 14 11 12 9 13 14 13 13 14 14 14 13 13 13 14 14 13 13 13 13 13 13 12 11 12 12 12 12 11 11 11 10 10 11 10 10 10 10 10 10 9 10 10 10 10 10 10 9 9 9 9 9 9 8 8 8 9 7 7 7 7 8 7 7 8 8 8 8 8 7 7 7 7 6 5 5 5 7 7 7 5 4 4 5
8 7 6 5 11 11 12 12 13 12 12 11 12 13 13 14 13 13 12 14 13 14 14 13 13 12 12 12 12 11 12 12 11 11 11 11 11 11 10 10 11 11 11 11 11 11 11 11 11 10 11 10 10 10 9 8 7 8 8 7 7 8 8 8 7 8 8 8 8 8 7 6 6 6 7 6 7 6 6 7 6 5 4 4 6
7 8 8 8 6 9 8 10 11 10 11 11 12 13 12 13 12 11 11 12 12 13 13 13 13 13 12 12 12 12 12 12 11 12 12 12 12 12 12 12 12 11 11 11 11 11 11 11 11 12 10 10 13 11 10 7 7 7 7 7 7 8 8 8 8 7 7 8 8 7 7 7 7 7 7 7 7 7 5 5 6 6 7 6 5
8 8 8 8 8 8 7 8 8 9 11 11 11 12 12 12 12 13 12 12 10 9 10 11 12 13 13 13 12 12 12 11 12 16 14 11 12 11 11 11 11 11 10 11 12 12 12 12 12 13 11 10 12 13 13 12 10 10 7 6 7 8 8 8 8 8 8 8 8 8 9 8 8 7 7 7 5 5 7 6 6 6 5 6 6
6 4 9 6 7 8 9 9 8 10 10 10 10 10 11 11 10 9 10 11 10 9 9 12 13 13 13 13 14 12 12 11 14 17 17 15 12 11 11 10 10 11 12 10 10 12 12 13 12 13 12 9 10 13 14 15 15 15 14 12 9 6 7 9 9 8 8 9 8 9 9 9 9 8 8 9 8 7 6 5 5 6 6 6 7
10 9 9 9 8 9 8 8 9 8 9 8 9 9 9 9 9 10 10 11 9 11 12 12 12 13 12 13 13 13 12 12 14 18 18 18 14 12 12 11 11 12 12 12 12 12 13 13 13 12 12 12 12 11 13 16 16 16 16 15 15 16 12 8 7 8 9 9 9 9 9 8 7 7 8 8 6 6 6 5 6 6 7 7 7
10 10 11 11 11 10 11 11 8 7 7 8 7 8 8 9 10 10 12 11 11 11 11 12 13 13 12 12 14 14 13 15 15 18 19 19 19 16 13 13 13 13 13 13 13 12 11 11 12 11 12 12 11 14 11 12 14 17 16 16 15 15 15 16 14 10 8 9 9 10 9 8 9 8 8 7 5 7 5 6 6 6 6 7 7
10 10 10 11 12 9 4 5 8 10 9 9 11 8 9 10 11 11 11 11 11 12 13 13 12 11 11 12 12 13 15 14 16 19 19 20 19 16 14 15 14 14 12 13 13 13 11 11 12 12 12 11 9 10 10 11 10 11 11 10 11 14 16 18 17 17 13 11 11 12 11 9 9 8 7 6 7 7 7 7 7 7 7 7 8
10 10 9 10 10 11 7 4 5 6 5 5 6 6 10 10 11 10 11 11 12 12 13 13 12 13 13 12 12 13 13 14 13 17 19 20 20 16 14 14 13 13 14 14 12 14 11 11 12 13 12 11 11 10 11 11 11 10 10 12 13 13 12 13 14 13 12 12 14 15 13 12 11 11 9 7 8 8 7 8 8 8 8 8 9
9 9 9 9 8 7 8 8 8 7 8 6 6 8 9 11 10 12 12 12 10 12 12 12 13 13 14 14 13 13 13 14 15 16 17 17 18 11 12 12 13 13 13 13 13 12 13 13 12 12 12 11 11 13 11 10 11 12 12 11 11 12 13 13 14 14 14 14 14 15 14 15 13 12 9 8 7 7 7 9 8 8 8 8 9
9 9 9 10 7 5 5 8 8 8 9 8 6 5 6 6 7 7 11 14 13 12 12 13 11 12 13 13 14 12 13 12 15 16 17 18 13 10 11 11 12 13 13 12 12 13 13 13 12 13 14 12 12 12 12 10 11 12 12 12 12 12 12 11 15 19 18 18 17 18 17 15 13 10 7 5 7 4 5 6 8 8 8 9 9
9 9 9 9 8 6 2 4 7 7 8 8 8 6 5 3 4 5 10 14 14 12 11 10 11 12 14 14 14 13 13 12 14 16 17 18 16 11 10 11 12 11 12 12 12 12 13 16 15 14 13 12 12 13 13 11 11 13 13 13 13 14 13 12 8 11 20 20 21 20 17 16 15 13 10 9 7 4 7 10 12 9 10 10 10
9 10 9 8 8 7 6 4 4 6 7 8 8 6 5 6 6 6 9 10 13 11 10 10 11 11 13 15 14 15 13 13 16 17 18 19 16 10 11 10 11 12 12 12 12 12 12 12 17 15 14 14 14 11 13 12 12 13 14 14 15 15 13 10 11 11 8 10 10 11 11 12 11 9 11 16 14 10 9 12 11 11 11 11 10
9 9 9 9 9 8 7 5 3 4 6 8 8 6 5 6 8 10 11 10 11 11 11 12 12 12 11 13 12 14 15 13 12 19 20 20 21 12 11 11 12 13 12 11 11 11 12 12 12 17 19 17 15 13 14 15 13 13 13 13 14 15 11 10 10 9 10 10 11 12 13 12 13 13 13 14 13 12 13 12 13 12 11 11 10
8 8 8 9 10 9 9 8 7 6 6 6 6 7 7 7 7 10 11 10 13 13 12 12 13 13 12 12 12 13 14 14 11 19 18 20 21 18 11 13 12 12 12 11 11 12 11 11 12 14 19 20 19 17 14 16 15 13 13 13 14 10 5 9 9 11 10 10 10 9 10 10 11 11 11 11 12 12 13 14 14 14 12 11 10
8 8 9 9 9 9 9 8 8 7 5 5 6 8 8 9 9 9 10 12 12 12 12 11 10 12 11 12 12 12 10 9 10 11 17 19 21 23 14 14 13 12 12 11 11 11 12 11 10 10 17 19 20 19 18 16 17 11 14 17 15 12 10 7 7 8 9 10 11 11 11 11 11 11 11 12 12 12 12 12 14 15 12 12 11
9 9 9 9 9 9 9 8 7 6 7 6 7 8 8 9 10 9 8 9 11 13 13 12 12 11 10 10 10 11 11 10 9 8 13 16 17 19 21 16 14 13 13 12 11 11 10 11 11 11 14 17 19 19 19 19 15 13 19 18 17 15 9 8 9 9 10 10 10 10 10 10 11 11 11 11 11 10 12 11 13 13 12 11 12
10 9 8 9 10 9 9 9 8 7 7 7 8 8 8 9 9 9 8 9 8 8 9 11 11 10 11 11 11 11 10 12 10 13 11 17 18 19 20 21 17 12 13 13 12 12 11 12 10 10 12 16 18 19 19 18 15 19 19 20 18 13 8 9 9 10 10 11 11 11 12 11 11 11 10 10 10 8 9 8 8 13 12 12 12
10 10 9 9 10 9 9 9 9 8 8 7 7 8 8 8 8 7 7 8 9 8 5 6 8 11 11 12 11 11 11 10 11 12 16 16 19 20 21 22 22 18 14 15 13 13 12 3 7 6 3 12 15 16 16 18 22 21 20 19 15 9 9 10 11 10 11 11 12 12 13 12 12 11 9 9 8 8 8 7 7 6 7 9 10
10 10 10 10 10 10 11 11 10 8 9 9 8 7 7 8 8 7 7 8 8 9 7 7 9 9 12 12 11 11 12 10 11 11 9 12 14 18 22 23 23 22 20 17 17 16 14 12 8 2 3 4 5 6 7 10 17 20 19 15 10 10 9 10 10 12 12 12 12 12 12 12 12 11 10 9 9 10 8 8 8 8 9 9 8
11 11 11 10 10 10 11 10 9 9 10 9 8 6 6 6 8 8 8 8 9 8 9 8 8 8 9 10 11 12 12 12 11 10 10 5 6 8 11 11 15 12 10 11 13 11 13 11 10 10 9 8 12 11 11 11 11 11 9 9 10 10 11 11 12 12 12 12 12 12 12 12 11 10 10 9 10 10 10 9 10 11 10 9 9
13 13 13 11 10 11 10 12 12 9 8 7 8 8 8 8 8 7 8 8 9 9 7 7 7 10 11 11 11 10 11 11 9 4 3 3 5 4 4 7 6 8 10 10 10 12 12 11 11 10 11 10 9 8 10 10 11 11 11 11 11 13 14 15 14 13 12 12 11 11 11 11 12 12 12 12 12 11 10 10 10 10 10 9 10
13 15 13 12 11 10 10 10 11 10 8 8 8 7 7 8 8 9 10 9 8 9 9 10 9 10 9 9 8 10 9 9 1 6 4 5 6 5 6 9 10 10 12 13 9 9 9 10 10 11 12 14 14 15 14 13 13 13 14 13 12 12 13 14 15 15 13 12 13 12 12 12 13 12 12 13 11 10 9 9 10 10 9 9 11
12 13 12 12 11 10 10 10 10 9 10 10 9 9 7 5 9 10 11 10 11 13 9 10 9 9 11 12 10 11 11 9 12 16 15 12 8 6 11 14 13 12 11 7 10 10 10 9 9 10 12 13 14 14 14 14 14 14 13 13 12 14 14 13 13 14 13 14 13 13 13 12 13 13 13 13 12 11 10 10 9 10 11 12 11
11 12 11 11 10 10 10 10 9 9 9 10 10 10 10 9 11 15 15 14 13 14 15 17 16 13 9 11 13 16 17 18 18 18 16 9 8 8 6 8 9 14 11 4 6 10 11 10 10 10 10 12 14 14 13 14 13 14 16 14 13 14 14 15 14 12 12 13 14 14 13 14 14 13 13 13 12 12 12 9 9 9 11 12 13
12 12 12 11 10 10 9 9 9 9 10 9 9 10 10 11 10 9 14 14 13 14 14 15 15 15 17 14 12 12 14 16 17 17 15 8 12 14 10 12 15 15 18 8 8 10 10 11 10 10 10 13 13 13 14 14 14 15 14 14 15 13 13 14 12 13 14 13 13 13 14 14 14 13 13 13 11 12 12 11 11 11 11 12 13
14 13 13 12 11 11 10 10 10 10 10 9 9 9 10 10 11 11 7 10 14 14 15 15 16 16 16 17 17 17 18 18 20 21 19 14 9 11 6 15 19 20 6 3 9 9 11 12 11 10 10 12 13 13 13 15 15 15 14 13 13 14 13 11 11 14 14 13 13 14 13 13 13 12 12 12 12 13 12 12 12 11 11 11 11
16 14 12 12 12 11 10 10 11 11 10 9 9 10 10 10 11 11 12 11 9 8 11 15 16 15 15 17 18 18 18 18 20 20 18 16 11 4 7 8 16 14 11 10 9 12 12 12 12 11 11 12 13 13 14 14 13 13 12 11 11 10 10 9 10 11 13 14 14 14 12 13 11 12 13 13 13 13 12 12 12 12 12 11 11
16 16 22 18 13 12 11 10 11 11 11 10 10 10 10 10 10 10 10 11 12 12 11 8 10 14 12 11 13 17 18 19 19 19 18 15 5 7 6 5 6 6 6 9 11 11 12 11 11 11 12 14 13 13 14 14 13 14 14 13 13 12 12 11 13 12 12 13 14 14 13 13 12 12 12 12 12 12 12 12 13 12 12 12 12
16 14 14 16 14 13 13 12 12 12 11 10 10 10 10 10 10 10 10 11 11 12 11 10 10 10 12 13 15 17 18 19 19 16 12 8 4 10 5 9 10 11 11 10 10 11 11 13 14 14 13 14 13 13 14 14 14 14 13 12 12 13 14 14 12 11 11 13 12 6 7 10 9 10 11 11 12 13 13 12 11 11 11 11 10
15 15 14 14 13 13 12 11 11 12 12 11 11 11 11 10 10 11 11 11 11 10 11 11 10 10 10 10 12 17 21 18 13 10 9 8 7 8 8 9 11 10 11 12 12 12 13 15 17 16 15 14 14 14 13 13 13 12 11 10 10 11 13 11 12 10 6 10 10 5 3 10 13 13 12 11 12 12 12 11 11 10 9 11 11
15 15 15 15 14 14 14 13 13 12 11 12 12 12 12 11 11 11 11 11 11 11 11 11 10 11 11 10 10 8 4 6 5 2 3 4 4 6 8 10 10 12 12 12 12 12 12 12 12 14 14 15 15 15 14 13 12 12 10 9 11 11 12 12 10 9 3 9 11 11 10 11 11 10 10 11 12 11 12 13 13 12 11 14 13
14 17 19 20 17 13 11 11 12 12 13 13 12 12 12 11 11 11 10 10 10 11 11 10 10 9 10 7 7 9 10 6 6 7 6 7 7 8 9 10 10 10 11 12 11 11 12 13 12 12 13 13 13 11 10 10 9 11 10 8 8 9 9 10 3 8 11 8 8 8 8 9 9 10 11 11 11 11 11 12 12 12 12 12 12
14 14 15 18 15 16 14 14 13 15 14 12 12 12 12 12 12 12 11 10 11 10 10 10 10 10 5 7 6 7 7 8 9 11 12 10 7 8 8 8 8 9 10 10 9 9 11 11 9 6 6 8 6 6 9 10 10 10 9 9 9 10 11 10 4 8 9 9 8 8 8 9 9 10 11 11 11 10 11 11 11 11 12 12 12
13 14 15 14 14 13 12 13 13 13 12 13 13 13 13 13 12 11 11 11 11 10 10 11 10 8 3 5 5 4 4 7 9 10 10 10 7 6 5 5 6 7 7 7 6 6 6 6 6 6 6 6 6 6 7 8 9 9 9 8 10 11 10 1 2 6 7 7 8 9 9 9 10 10 12 12 12 11 10 11 11 11 10 10 11
13 13 14 13 13 13 13 13 14 15 14 13 13 13 13 13 12 12 11 11 12 12 12 11 10 9 2 10 9 8 6 8 8 8 8 7 7 7 5 5 5 5 5 6 6 6 6 6 6 5 5 6 7 7 7 7 7 7 8 8 9 10 7 5 9 7 7 6 8 9 9 10 10 11 12 11 11 12 12 13 12 12 10 9 9
13 13 13 13 13 13 13 12 12 12 12 13 13 12 13 13 13 12 11 11 12 12 12 11 11 9 8 3 3 5 7 8 7 7 5 4 4 5 5 5 5 5 5 5 5 6 5 5 5 5 5 5 5 6 6 6 6 7 8 8 8 8 8 7 8 6 9 9 9 11 12 11 11 11 11 11 12 13 14 15 15 14 12 9 9
9 11 11 10 12 12 12 11 11 12 12 14 14 13 13 13 11 10 10 10 10 11 11 11 10 9 9 9 7 7 6 6 6 5 5 4 4 4 4 5 6 6 5 5 5 5 5 5 5 4 4 4 4 5 5 5 5 6 6 7 8 8 8 8 7 7 7 8 10 10 10 10 11 11 12 12 13 13 14 15 13 13 13 13 9
10 10 10 10 10 10 12 12 12 12 13 12 12 12 12 12 11 11 9 9 9 10 10 10 9 9 8 8 7 7 6 5 5 5 5 5 4 4 4 4 5 5 5 5 5 5 5 5 5 5 5 5 4 4 4 4 4 5 4 5 6 7 7 7 6 6 6 6 8 9 11 12 13 14 14 12 12 13 13 13 13 13 13 12 10
9 10 10 10 10 10 11 12 12 11 11 11 12 12 13 10 9 10 8 8 9 9 9 8 8 8 7 7 6 6 5 5 5 4 4 4 4 4 4 3 4 4 4 5 5 5 5 5 5 5 6 6 6 5 5 4 4 4 4 4 5 7 7 7 7 7 7 6 7 9 10 10 10 9 9 9 11 10 10 11 11 10 11 11 8
11 10 10 10 10 11 12 12 10 10 11 11 11 12 11 8 6 6 7 8 9 7 7 7 7 7 7 6 5 4 4 4 4 4 4 4 4 4 4 4 4 4 5 5 5 5 5 5 5 6 6 6 7 7 7 7 6 5 5 5 5 6 7 6 6 7 8 8 8 9 10 10 10 10 9 6 7 8 8 7 7 9 7 6 7
10 10 9 9 10 10 11 11 11 11 10 11 11 10 8 7 6 7 9 9 8 7 7 6 6 5 5 5 4 4 3 3 3 3 3 3 3 3 4 4 4 4 4 5 4 4 4 5 5 5 6 6 6 6 7 7 6 6 6 6 6 6 9 10 8 9 9 9 9 8 9 9 8 6 5 7 7 5 8 9 7 4 5 5 5
10 10 9 9 9 9 10 11 10 10 10 9 9 8 7 8 9 9 8 8 8 7 6 5 4 4 4 4 3 3 3 3 3 2 1 2 2 3 4 5 5 5 5 5 5 5 5 5 6 6 6 6 7 7 8 8 9 9 9 8 11 17 15 10 8 5 7 8 8 8 7 3 2 2 3 3 2 1 1 5 4 5 6 7 7
10 11 11 10 10 9 10 10 10 9 9 9 9 8 7 7 8 8 7 7 7 6 5 4 4 4 3 3 2 2 2 1 1 2 2 2 3 3 3 4 4 5 5 5 5 5 5 5 6 6 6 6 7 7 8 8 9 9 9 9 15 16 16 12 7 7 3 4 5 5 5 5 6 6 6 6 6 7 7 7 6 5 5 5 5
9 9 10 10 10 9 9 9 9 8 8 8 8 8 8 7 7 6 6 6 6 6 5 4 3 3 2 2 1 1 1 1 1 1 1 2 2 2 2 3 4 5 5 4 4 4 5 5 5 6 7 7 7 8 8 8 8 7 9 12 14 15 16 16 10 13 11 8 8 8 8 8 9 9 9 9 9 10 11 11 10 10 9 7 7
Wind_Direction
194 190 185 188 185 188 186 191 196 197 200 199 204 206 202 210 207 210 198 209 204 198 203 210 207 208 212 205 213 212 205 207 205 204 205 214 225 236 259 241 223 230 235 254 264 258 246 252 250 251 259 262 260 260 272 255 235 247 246 245 247 242 241 247 267 276 275 278 288 287 305 315 294 312 286 276 296 289 297 299 301 295 291 299 142
196 183 186 184 190 187 190 190 193 194 201 198 204 204 208 202 210 207 208 201 208 207 199 206 208 210 209 210 214 217 205 206 211 206 204 208 218 217 221 234 241 243 246 247 246 260 255 240 252 253 244 249 257 255 245 254 242 242 231 229 243 242 221 252 260 275 283 284 275 294 298 283 275 252 283 303 299 302 290 299 288 279 284 301 169
201 184 184 186 190 187 195 192 191 197 199 202 203 206 202 206 202 207 211 203 199 215 205 206 204 206 214 209 209 218 213 203 211 216 208 207 215 227 224 212 220 231 234 239 246 247 249 250 245 243 246 241 236 247 261 266 269 273 278 272 262 252 234 224 247 263 277 281 287 280 274 287 301 308 298 289 289 275 277 277 289 303 305 285 288
209 188 189 193 189 192 194 196 196 199 203 204 206 206 204 201 201 207 209 213 201 200 215 210 203 200 207 213 210 214 213 215 212 214 216 211 214 217 229 231 223 220 230 237 231 231 238 239 247 250 249 247 251 260 262 260 259 254 256 253 256 270 282 270 243 256 268 279 280 283 291 295 289 287 287 284 281 281 286 297 284 283 293 293 280
214 176 204 189 192 198 195 198 200 201 207 207 207 207 208 203 198 204 207 213 214 199 198 210 206 200 206 207 210 210 214 214 217 223 215 213 217 219 218 220 227 228 231 232 240 243 240 241 238 237 243 252 254 251 248 250 251 257 253 247 247 248 246 245 250 247 253 262 273 275 279 274 277 277 277 279 282 282 272 271 284 286 284 279 287
214 205 194 198 196 200 200 201 205 203 206 211 210 209 208 209 202 196 207 210 214 214 196 199 205 203 206 208 209 209 212 215 215 222 226 221 214 222 221 221 221 223 225 228 230 232 237 239 245 249 250 249 252 251 251 254 255 249 252 264 267 253 243 246 248 252 259 263 270 278 271 272 271 267 278 281 282 282 287 288 279 266 260 267 273
251 206 174 199 195 208 206 204 208 211 207 212 214 211 212 212 212 205 199 209 209 213 209 199 199 204 204 208 209 208 208 213 216 217 226 234 229 220 226 221 224 224 226 230 232 229 231 234 234 237 242 246 251 253 251 248 252 259 260 256 250 255 256 252 245 248 250 255 258 259 268 266 264 267 254 256 267 276 284 289 285 278 265 272 281
303 286 278 143 191 214 223 207 210 210 212 211 215 218 214 216 212 216 209 202 211 213 215 207 200 204 205 207 209 208 206 210 212 216 219 225 227 228 226 231 227 225 229 229 233 237 234 235 238 232 229 231 238 246 250 255 252 250 249 246 245 250 255 255 253 249 248 252 255 264 268 281 286 284 288 273 264 254 254 267 274 284 289 283 273
266 258 229 249 253 221 213 222 209 209 213 211 211 219 221 218 218 214 216 219 208 214 221 219 209 202 206 208 210 210 210 208 210 210 214 215 224 227 226 227 231 236 236 235 232 234 243 248 245 243 237 216 214 220 241 259 255 251 246 249 252 249 248 251 257 258 258 260 264 267 268 264 265 271 272 273 268 272 278 284 289 291 282 274 270
329 271 240 217 233 252 239 235 229 213 211 209 211 211 217 222 220 215 216 218 224 215 222 226 226 212 205 207 212 215 216 216 202 201 202 212 215 225 226 226 230 234 235 238 244 244 243 244 248 250 245 228 204 204 212 228 241 253 260 251 245 244 247 253 253 254 256 258 260 261 260 259 260 253 260 265 270 264 262 242 255 271 288 290 289
316 328 271 244 237 234 235 233 236 234 218 208 208 210 213 216 222 220 216 217 218 217 221 227 232 234 222 212 213 219 223 222 194 188 196 207 217 218 225 231 228 230 237 237 240 244 247 247 250 244 235 220 207 202 208 214 221 230 243 251 258 261 256 248 247 250 256 257 256 255 258 264 267 275 279 283 284 289 290 297 291 288 277 284 285
356 339 342 327 287 256 243 242 238 241 244 222 211 210 212 216 218 215 217 215 211 218 217 219 226 232 234 232 226 222 226 230 192 186 192 199 208 221 224 227 229 230 233 237 238 240 242 247 248 249 242 235 232 205 209 213 218 224 230 237 243 246 243 246 258 257 253 257 257 259 268 269 275 270 271 275 285 297 308 308 298 289 285 276 275
357 360 359 358 355 355 352 312 287 276 284 278 239 217 221 215 215 215 215 214 214 212 218 219 217 223 231 230 237 235 231 218 195 189 191 195 201 211 230 234 234 236 235 232 236 238 244 245 248 252 256 242 217 227 210 211 216 221 226 232 240 244 247 243 238 240 256 260 265 265 261 266 263 263 265 276 292 277 278 274 274 274 270 272 274
4 2 2 11 8 28 41 16 341 332 330 316 292 264 241 222 220 222 221 217 213 216 216 219 223 224 226 226 228 234 235 225 190 187 191 195 199 202 226 232 237 242 242 242 241 237 231 236 242 246 246 250 248 233 226 225 215 213 222 229 233 237 235 239 240 237 236 244 250 253 253 255 264 266 269 272 266 266 268 272 274 276 275 274 284
0 357 358 8 19 12 20 342 287 266 241 252 279 294 285 283 256 236 233 220 214 214 219 218 218 221 225 225 226 230 230 229 188 190 190 193 196 197 219 230 236 238 239 240 243 247 246 239 237 241 243 243 240 238 235 230 231 228 218 221 227 233 232 229 226 226 224 229 233 241 246 247 251 255 258 256 257 257 262 266 271 274 282 287 282
3 2 0 9 24 21 357 344 330 312 291 260 242 225 222 234 264 274 257 245 227 217 213 221 219 218 220 224 228 228 233 215 196 187 194 196 191 197 212 223 232 239 240 238 238 235 237 240 244 242 242 240 236 231 235 237 234 235 237 236 234 233 235 230 222 220 222 222 225 231 236 238 236 243 252 264 258 252 246 247 245 247 252 260 268
4 4 1 355 16 45 6 326 319 320 320 301 245 238 244 236 229 249 279 262 246 233 225 221 219 222 221 220 225 230 234 218 198 191 189 191 182 206 212 220 227 234 238 239 238 236 235 233 232 240 239 238 234 222 221 222 235 239 241 243 245 247 247 239 211 214 217 224 229 232 240 245 248 248 255 247 253 273 276 268 260 262 269 271 271
2 1 356 356 347 355 19 313 317 320 315 314 312 273 243 251 256 239 249 259 253 242 236 232 227 222 221 225 221 223 229 219 193 193 191 181 186 201 211 217 229 230 235 236 237 237 235 231 231 233 237 240 232 211 205 201 224 233 240 247 248 247 247 250 254 213 213 215 219 226 230 235 241 247 243 247 233 230 228 244 250 255 258 256 258
359 354 352 344 337 332 327 321 316 321 317 315 320 334 306 269 263 265 270 276 274 270 260 249 238 232 231 227 213 220 231 222 189 193 189 184 192 207 211 221 228 233 234 235 231 235 237 230 225 228 232 236 233 212 199 195 219 228 234 241 246 249 249 249 244 253 228 220 233 232 241 241 240 236 236 231 220 215 230 241 249 249 253 254 260
352 346 344 338 339 335 329 322 312 312 307 310 314 309 287 283 253 235 229 240 252 253 245 246 250 249 245 238 233 220 229 232 198 190 186 186 192 201 211 217 229 232 235 237 237 232 233 235 223 216 226 230 230 212 198 201 215 227 232 237 243 246 249 247 245 248 254 246 232 223 228 233 233 231 233 234 227 214 224 232 237 240 242 248 253
340 341 339 335 335 335 337 336 325 316 306 307 305 302 296 280 284 283 259 229 235 236 240 242 243 244 243 248 249 244 238 236 204 182 188 187 193 199 208 219 226 232 233 233 235 238 236 232 239 212 209 218 222 218 202 205 214 225 230 238 239 253 292 259 252 240 242 247 255 254 245 231 234 239 240 232 230 226 219 223 228 228 232 242 247
332 334 333 331 332 332 334 334 322 313 312 309 313 307 299 294 286 279 272 257 243 239 243 244 240 244 242 239 241 246 258 271 251 178 190 190 193 197 209 219 223 230 233 237 237 238 236 239 242 217 198 209 215 216 211 204 212 220 233 237 245 255 262 263 279 284 271 257 250 249 250 251 252 247 245 243 235 227 220 215 214 222 224 226 233
325 325 324 325 327 327 323 326 325 320 313 306 298 294 293 292 288 290 293 301 288 272 254 247 242 239 243 247 246 247 245 249 254 234 177 196 202 205 212 218 211 218 236 242 240 243 241 242 246 231 190 203 207 212 211 211 210 222 231 237 240 244 251 253 256 259 263 265 266 260 253 252 252 249 247 247 248 246 243 223 208 210 216 228 231
317 317 319 321 326 322 321 322 320 313 306 302 294 287 290 291 288 282 286 284 282 286 291 281 275 272 257 249 244 245 244 246 225 226 204 187 199 206 218 227 227 221 227 241 244 245 247 247 251 256 211 197 202 206 209 209 216 223 228 233 238 240 242 246 243 245 250 253 254 258 257 252 251 251 250 251 255 252 248 247 203 195 205 218 224
310 312 316 318 316 317 319 318 313 309 309 300 290 291 286 285 280 278 277 278 276 271 248 280 276 271 277 267 262 256 255 251 254 222 214 200 196 201 210 218 227 230 231 235 244 250 261 297 66 30 185 201 207 205 208 212 217 224 225 228 232 236 234 237 241 240 239 238 239 243 248 248 249 253 255 258 259 262 263 258 257 247 218 214 223
304 307 309 308 310 313 315 313 309 310 305 293 286 278 278 277 278 278 278 277 277 276 263 229 246 254 258 264 267 267 262 263 253 244 219 207 206 206 207 211 219 221 224 236 237 243 253 279 288 273 169 180 206 211 216 213 219 223 227 226 223 227 227 229 229 231 233 235 236 238 240 243 244 244 242 243 248 249 250 246 245 241 241 242 241
302 300 298 300 305 307 304 302 308 307 294 289 286 287 289 295 299 298 292 282 278 276 273 268 259 258 258 260 263 266 266 260 258 257 249 227 213 207 213 227 227 236 246 254 265 270 258 246 250 258 284 204 201 218 225 224 215 217 220 218 220 222 222 223 228 227 227 230 234 236 239 241 245 244 236 227 229 233 238 241 235 235 235 236 237
293 294 295 298 297 297 297 298 296 289 293 308 314 309 303 297 291 284 292 311 319 312 317 317 301 284 282 280 275 267 262 259 256 278 345 343 294 292 218 236 236 211 221 230 233 242 240 242 242 251 253 252 233 231 235 233 231 227 222 215 212 216 221 222 223 231 231 229 231 233 237 235 239 240 240 239 235 230 225 233 235 237 235 236 240
287 287 287 285 286 290 289 291 289 294 303 302 292 295 303 305 307 308 302 301 301 310 316 302 300 304 309 306 298 287 283 285 317 92 42 359 341 308 244 197 203 213 218 227 242 229 235 242 244 238 245 246 248 247 244 237 236 233 233 232 227 216 213 215 219 221 220 221 225 225 229 228 234 235 239 241 237 234 214 218 227 237 237 237 243
281 282 284 285 286 288 288 288 294 301 300 298 299 296 301 286 273 280 287 290 295 291 278 275 284 303 298 289 290 284 284 293 321 313 302 300 309 312 290 293 335 336 331 258 233 241 233 233 234 246 248 247 248 246 243 242 240 239 236 222 227 242 235 220 219 219 213 215 218 220 225 228 231 232 234 237 238 236 230 223 222 220 231 240 240
277 275 273 272 276 282 287 288 289 291 293 295 296 295 292 276 231 227 238 252 258 263 272 277 278 264 246 277 282 276 280 286 283 279 280 268 268 263 248 263 273 280 293 349 248 240 249 238 241 244 241 246 246 246 245 245 244 242 245 243 229 232 238 242 233 229 222 216 215 218 221 222 228 229 232 236 238 236 240 228 226 220 231 239 245
274 273 273 273 277 278 279 280 283 283 283 282 284 288 290 291 291 247 225 235 241 244 251 256 261 264 262 251 259 283 274 267 267 265 269 267 246 250 213 199 233 233 245 223 244 240 240 245 247 247 246 248 245 247 247 248 247 248 249 248 247 243 228 233 232 236 235 231 226 220 219 221 224 225 229 234 232 238 237 239 234 228 229 236 242
269 267 267 267 266 263 265 272 275 275 278 282 284 283 284 290 293 300 274 221 228 238 243 244 249 254 258 262 251 243 257 272 276 279 276 265 247 262 251 186 215 224 203 222 231 239 241 245 252 251 247 248 249 250 250 249 249 251 253 252 249 247 243 231 205 220 229 235 233 233 227 223 224 226 228 230 230 235 232 233 235 234 224 229 235
264 267 270 272 271 270 271 274 277 277 277 278 281 282 284 285 288 293 296 304 291 258 235 237 243 248 250 248 257 262 259 254 260 264 268 273 272 232 177 210 240 245 188 217 202 228 233 243 251 253 255 254 252 250 248 248 247 249 248 249 255 258 251 232 218 211 218 224 227 234 233 232 225 227 228 229 229 232 232 232 233 237 238 231 231
268 266 265 264 263 264 263 262 266 270 270 270 270 274 276 280 284 284 290 296 299 298 306 284 233 217 238 256 250 250 256 261 257 256 259 260 257 163 178 199 216 248 215 226 226 228 234 243 251 255 257 256 253 251 251 252 252 249 246 243 245 246 249 245 241 231 227 227 230 236 233 237 243 247 242 241 241 238 237 238 241 236 238 235 232
271 270 269 265 261 258 257 255 257 261 266 266 268 275 279 282 283 285 286 284 284 289 292 291 302 304 274 251 250 253 256 258 259 259 268 269 204 153 193 224 229 231 225 216 222 231 237 243 252 254 251 251 252 251 249 247 246 248 251 247 244 245 250 252 250 240 231 237 241 276 340 338 329 302 285 274 258 252 250 243 239 237 233 234 235
261 260 257 258 259 259 257 256 256 256 262 269 274 273 278 279 279 278 277 278 281 285 286 295 298 290 280 278 248 241 244 252 274 292 275 260 186 180 227 232 233 230 232 232 225 224 232 241 244 247 248 250 250 249 249 250 250 249 248 249 250 251 250 248 249 261 342 4 10 12 200 228 232 230 226 232 234 234 233 230 230 222 213 220 223
265 265 263 260 257 257 254 255 257 260 262 266 266 267 267 268 268 268 270 274 280 283 285 289 287 288 293 292 311 342 48 80 62 45 51 83 145 210 224 240 239 240 241 242 238 236 233 232 236 239 242 244 247 249 249 249 248 247 246 241 243 244 245 250 248 68 89 216 213 221 226 228 234 238 239 236 234 232 228 225 223 216 208 209 212
259 258 260 267 274 277 280 272 268 264 260 259 262 263 261 262 265 267 269 273 275 276 282 284 285 292 292 328 356 351 331 291 269 254 212 195 195 207 221 231 233 237 239 245 247 243 246 245 243 247 245 245 246 253 259 260 260 258 252 244 237 239 239 246 203 148 212 215 220 221 223 231 233 236 236 237 234 232 234 235 225 222 216 211 208
262 262 255 239 242 253 257 260 261 260 263 270 271 268 263 258 256 258 261 265 268 276 282 284 288 288 326 24 5 357 337 316 310 307 301 291 251 220 221 233 238 240 244 248 252 254 252 257 259 275 279 279 287 276 262 256 252 252 257 249 248 244 242 247 180 186 201 200 210 210 210 219 224 231 235 236 241 240 237 233 230 225 225 227 224
259 257 259 262 257 254 250 250 253 253 254 253 255 255 256 257 260 264 269 271 277 279 275 279 281 291 55 67 70 22 313 298 299 298 295 297 332 338 336 343 349 346 348 8 13 4 359 2 7 5 357 355 349 345 330 317 296 281 272 265 256 253 254 46 238 231 197 202 212 223 220 220 221 226 233 230 227 233 236 234 235 236 236 234 232
271 272 269 265 256 248 249 253 254 254 256 261 261 263 266 266 264 263 266 270 272 274 278 279 280 284 117 73 28 356 311 288 283 284 286 313 328 330 343 349 353 346 351 359 7 5 356 346 340 343 343 350 350 343 339 334 346 340 334 318 300 284 282 251 239 246 238 214 222 223 230 227 225 228 232 235 231 229 231 233 233 234 232 223 218
274 268 264 260 257 255 254 250 250 251 250 253 254 255 255 259 265 264 264 264 269 272 274 277 280 282 287 17 24 302 283 281 282 282 299 337 333 333 336 344 346 348 352 357 8 6 353 343 338 343 349 350 349 339 335 331 336 328 321 318 322 332 333 321 307 267 245 234 226 221 226 232 228 230 232 231 234 236 238 239 239 239 234 223 219
288 273 262 258 261 263 263 263 262 262 261 262 267 270 270 266 262 264 264 263 265 267 270 273 274 280 284 292 287 285 295 293 294 297 309 329 334 330 335 340 338 342 345 0 9 359 347 343 340 341 343 341 341 337 329 333 327 318 312 311 311 313 306 302 304 325 339 330 307 288 262 246 241 234 232 232 233 236 239 239 234 234 237 236 221
303 288 279 277 271 266 265 262 262 262 266 267 264 265 261 257 259 264 263 264 262 263 266 270 276 278 283 286 289 290 293 296 301 308 309 311 311 323 330 342 345 337 339 351 3 354 351 344 334 335 337 341 340 337 333 326 322 310 312 310 302 298 294 298 311 321 326 312 308 306 295 279 261 257 254 248 245 245 247 240 235 231 230 230 218
291 291 287 284 280 273 270 265 264 263 262 261 261 262 260 256 252 252 252 254 258 263 267 271 274 277 281 283 285 287 289 294 295 302 306 313 318 323 333 337 344 339 344 355 357 352 350 341 341 343 339 333 330 331 321 313 297 293 291 283 281 277 287 290 295 295 286 289 285 283 282 287 279 273 271 271 272 266 260 253 246 237 232 225 223
288 280 279 276 281 282 279 271 267 266 267 264 262 264 263 265 268 272 265 257 259 263 263 264 270 272 273 275 282 284 287 292 296 299 302 315 320 326 331 339 346 355 354 353 354 350 346 346 348 347 342 336 329 327 326 323 315 306 301 291 289 289 280 283 281 272 270 263 261 271 275 279 273 264 248 232 231 236 241 240 234 236 243 217 192
288 287 283 281 279 277 275 272 268 268 266 270 268 268 271 269 262 250 253 254 249 249 254 258 263 267 271 274 277 279 285 288 291 292 305 317 331 333 344 360 13 17 25 22 12 4 357 0 2 0 356 347 342 339 340 337 328 319 320 315 306 307 306 295 270 261 257 260 255 253 254 265 273 275 264 244 241 209 200 218 208 155 143 151 164
291 286 281 277 274 274 270 271 270 266 265 265 263 260 261 262 258 257 253 253 256 257 257 256 251 259 263 267 271 279 288 286 284 288 344 45 44 46 49 51 49 45 41 43 31 31 36 35 32 27 23 15 9 3 4 2 357 355 348 346 347 327 299 294 295 292 283 263 261 252 242 206 150 96 87 79 122 120 46 57 69 87 104 120 136
279 278 273 272 272 271 272 269 268 266 266 265 268 265 261 251 253 255 256 254 254 254 249 247 244 245 245 247 251 249 235 187 123 112 82 49 33 30 25 35 44 47 45 35 29 20 22 26 28 30 30 26 21 18 15 15 11 6 1 348 336 339 330 332 20 12 10 51 39 48 49 61 66 64 52 58 64 72 64 55 47 53 68 79 87
285 284 280 277 274 271 271 269 267 263 262 263 265 260 259 257 254 253 251 253 252 251 246 239 226 217 205 207 197 173 138 94 50 28 24 37 42 50 59 66 74 77 70 71 68 65 60 59 55 51 46 42 42 40 38 35 26 13 2 4 11 9 17 13 9 5 28 61 73 59 64 56 62 57 57 51 54 55 60 58 52 46 34 36 55